• In Österreich
  • Länderverzeichnis
  • Für 7 Tage
  • Wassertemperatur
  • Satellitenkarten
  • Wetterkarte
  • News
  • Widgets
  • user-avatar
    Anmelden

    Stündliche Wetter Plewen

    Heute, 14 August, Dienstag

    Zeit Temperatur Niederschläge Wind Luftdruck Luftfeuchtigkeit
    00:00 +20°C° 0 mm 2 m/S 745 mmHg 51%
    01:00 +20°C° 0 mm 2 m/S 745 mmHg 53%
    02:00 +20°C° 0 mm 2 m/S 745 mmHg 55%
    03:00 +20°C° 0 mm 2 m/S 745 mmHg 57%
    04:00 +19°C° 0 mm 2 m/S 745 mmHg 59%
    05:00 +20°C° 0 mm 1 m/S 745 mmHg 61%
    06:00 +21°C° 0 mm 1 m/S 745 mmHg 58%
    07:00 +23°C° 0 mm 1 m/S 745 mmHg 54%
    08:00 +25°C° 0 mm 1 m/S 745 mmHg 50%
    09:00 +27°C° 0 mm 1 m/S 745 mmHg 45%
    10:00 +29°C° 0 mm 1 m/S 745 mmHg 40%
    11:00 +31°C° 0 mm 2 m/S 745 mmHg 34%
    12:00 +32°C° 0 mm 2 m/S 744 mmHg 32%
    13:00 +34°C° 0 mm 2 m/S 744 mmHg 29%
    14:00 +34°C° 0 mm 2 m/S 744 mmHg 27%
    15:00 +34°C° 0 mm 2 m/S 744 mmHg 27%
    16:00 +34°C° 0 mm 2 m/S 743 mmHg 28%
    17:00 +34°C° 0 mm 2 m/S 743 mmHg 28%
    18:00 +31°C° 0 mm 2 m/S 743 mmHg 33%
    19:00 +28°C° 0 mm 2 m/S 743 mmHg 37%
    20:00 +26°C° 0 mm 1 m/S 743 mmHg 41%
    21:00 +25°C° 0 mm 1 m/S 743 mmHg 43%
    22:00 +25°C° 0 mm 2 m/S 744 mmHg 45%
    23:00 +24°C° 0 mm 2 m/S 744 mmHg 47%

    Morgen, 15 August, Mittwoch

    Zeit Temperatur Niederschläge Wind Luftdruck Luftfeuchtigkeit
    00:00 +23°C° 0 mm 2 m/S 744 mmHg 49%
    01:00 +23°C° 0 mm 2 m/S 744 mmHg 52%
    02:00 +21°C° 0 mm 2 m/S 744 mmHg 54%
    03:00 +21°C° 0 mm 2 m/S 744 mmHg 57%
    04:00 +21°C° 0 mm 1 m/S 744 mmHg 60%
    05:00 +21°C° 0 mm 1 m/S 744 mmHg 63%
    06:00 +22°C° 0 mm 1 m/S 744 mmHg 59%
    07:00 +24°C° 0 mm 1 m/S 744 mmHg 56%
    08:00 +26°C° 0 mm 1 m/S 744 mmHg 52%
    09:00 +27°C° 0 mm 1 m/S 744 mmHg 47%
    10:00 +29°C° 0 mm 1 m/S 744 mmHg 41%
    11:00 +31°C° 0 mm 2 m/S 744 mmHg 36%
    12:00 +31°C° 0 mm 2 m/S 744 mmHg 33%
    13:00 +32°C° 0 mm 2 m/S 744 mmHg 31%
    14:00 +34°C° 0 mm 2 m/S 744 mmHg 28%
    15:00 +34°C° 0 mm 2 m/S 743 mmHg 28%
    16:00 +34°C° 0 mm 2 m/S 743 mmHg 28%
    17:00 +34°C° 0 mm 2 m/S 743 mmHg 27%
    18:00 +31°C° 0 mm 2 m/S 743 mmHg 31%
    19:00 +28°C° 0 mm 1 m/S 743 mmHg 36%
    20:00 +26°C° 0 mm 1 m/S 743 mmHg 40%
    21:00 +25°C° 0 mm 1 m/S 744 mmHg 41%
    22:00 +24°C° 0 mm 1 m/S 744 mmHg 42%
    23:00 +24°C° 0 mm 1 m/S 744 mmHg 43%

    übermorgen, 16 August, Donnerstag

    Zeit Temperatur Niederschläge Wind Luftdruck Luftfeuchtigkeit
    00:00 +23°C° 0 mm 1 m/S 744 mmHg 45%
    01:00 +23°C° 0 mm 1 m/S 744 mmHg 47%
    02:00 +22°C° 0 mm 1 m/S 744 mmHg 48%
    03:00 +22°C° 0 mm 1 m/S 744 mmHg 50%
    04:00 +21°C° 0 mm 1 m/S 744 mmHg 52%
    05:00 +20°C° 0 mm 2 m/S 744 mmHg 53%
    06:00 +21°C° 0 mm 2 m/S 744 mmHg 51%
    07:00 +24°C° 0 mm 2 m/S 744 mmHg 50%
    08:00 +26°C° 0 mm 2 m/S 744 mmHg 48%
    09:00 +27°C° 0 mm 2 m/S 744 mmHg 43%
    10:00 +29°C° 0 mm 2 m/S 744 mmHg 38%
    11:00 +31°C° 0 mm 2 m/S 745 mmHg 33%
    12:00 +32°C° 0 mm 2 m/S 744 mmHg 31%
    13:00 +34°C° 0 mm 2 m/S 744 mmHg 29%
    14:00 +35°C° 0 mm 2 m/S 743 mmHg 26%
    15:00 +34°C° 0 mm 2 m/S 743 mmHg 26%
    16:00 +34°C° 0 mm 2 m/S 743 mmHg 27%
    17:00 +34°C° 0 mm 2 m/S 743 mmHg 27%
    18:00 +31°C° 0 mm 2 m/S 743 mmHg 31%
    19:00 +28°C° 0 mm 1 m/S 743 mmHg 35%
    20:00 +26°C° 0 mm 1 m/S 743 mmHg 39%
    21:00 +26°C° 0 mm 1 m/S 744 mmHg 40%
    22:00 +25°C° 0 mm 1 m/S 744 mmHg 41%
    23:00 +25°C° 0 mm 1 m/S 744 mmHg 41%

    17 August, Freitag

    Zeit Temperatur Niederschläge Wind Luftdruck Luftfeuchtigkeit
    00:00 +24°C° 0 mm 2 m/S 744 mmHg 43%
    01:00 +24°C° 0 mm 2 m/S 744 mmHg 44%
    02:00 +23°C° 0 mm 2 m/S 744 mmHg 46%
    03:00 +23°C° 0 mm 2 m/S 744 mmHg 48%
    04:00 +21°C° 0 mm 2 m/S 744 mmHg 51%
    05:00 +21°C° 0 mm 2 m/S 744 mmHg 53%
    06:00 +23°C° 0 mm 2 m/S 744 mmHg 53%
    07:00 +24°C° 0 mm 2 m/S 745 mmHg 52%
    08:00 +26°C° 0 mm 2 m/S 745 mmHg 51%
    09:00 +28°C° 0 mm 2 m/S 745 mmHg 46%
    10:00 +30°C° 0 mm 2 m/S 745 mmHg 41%
    11:00 +32°C° 0 mm 2 m/S 745 mmHg 36%
    12:00 +34°C° 0 mm 2 m/S 744 mmHg 33%
    13:00 +35°C° 0 mm 2 m/S 744 mmHg 30%
    14:00 +35°C° 0 mm 1 m/S 744 mmHg 27%
    15:00 +34°C° 0 mm 1 m/S 744 mmHg 27%
    16:00 +34°C° 0 mm 1 m/S 743 mmHg 27%
    17:00 +34°C° 0 mm 1 m/S 743 mmHg 27%
    18:00 +32°C° 0 mm 1 m/S 743 mmHg 31%
    19:00 +29°C° 0 mm 1 m/S 743 mmHg 35%
    20:00 +27°C° 0 mm 1 m/S 744 mmHg 38%
    21:00 +27°C° 0 mm 1 m/S 744 mmHg 40%
    22:00 +26°C° 0 mm 1 m/S 744 mmHg 41%
    23:00 +25°C° 0 mm 1 m/S 744 mmHg 42%

    18 August, Samstag

    Zeit Temperatur Niederschläge Wind Luftdruck Luftfeuchtigkeit
    00:00 +25°C° 0 mm 1 m/S 744 mmHg 43%
    01:00 +24°C° 0 mm 1 m/S 744 mmHg 44%
    02:00 +24°C° 0 mm 1 m/S 744 mmHg 45%
    03:00 +23°C° 0 mm 1 m/S 744 mmHg 48%
    04:00 +23°C° 0 mm 1 m/S 744 mmHg 50%
    05:00 +22°C° 0 mm 1 m/S 744 mmHg 52%
    06:00 +24°C° 0 mm 1 m/S 745 mmHg 51%
    07:00 +25°C° 0 mm 1 m/S 745 mmHg 49%
    08:00 +27°C° 0 mm 1 m/S 745 mmHg 47%
    09:00 +29°C° 0 mm 1 m/S 745 mmHg 44%
    10:00 +30°C° 0 mm 2 m/S 745 mmHg 40%
    11:00 +32°C° 0 mm 2 m/S 745 mmHg 36%
    12:00 +34°C° 0 mm 2 m/S 745 mmHg 34%
    13:00 +35°C° 0 mm 2 m/S 744 mmHg 32%
    14:00 +35°C° 0 mm 2 m/S 744 mmHg 30%
    15:00 +35°C° 0 mm 2 m/S 744 mmHg 31%
    16:00 +35°C° 0 mm 2 m/S 744 mmHg 31%
    17:00 +35°C° 0 mm 2 m/S 744 mmHg 32%
    18:00 +32°C° 0,1 mm 2 m/S 744 mmHg 37%
    19:00 +30°C° 0,1 mm 2 m/S 744 mmHg 42%
    20:00 +27°C° 0,1 mm 1 m/S 744 mmHg 47%
    21:00 +27°C° 0,5 mm 1 m/S 745 mmHg 51%
    22:00 +26°C° 0,5 mm 1 m/S 745 mmHg 54%
    23:00 +25°C° 0,5 mm 1 m/S 745 mmHg 58%

    19 August, Sonntag

    Zeit Temperatur Niederschläge Wind Luftdruck Luftfeuchtigkeit
    00:00 +24°C° 0,2 mm 1 m/S 745 mmHg 60%
    01:00 +23°C° 0,2 mm 1 m/S 745 mmHg 63%
    02:00 +23°C° 0,2 mm 1 m/S 745 mmHg 65%
    03:00 +22°C° 0,2 mm 1 m/S 745 mmHg 67%
    04:00 +22°C° 0,2 mm 1 m/S 745 mmHg 69%
    05:00 +22°C° 0,2 mm 1 m/S 745 mmHg 71%
    06:00 +23°C° 0 mm 1 m/S 745 mmHg 66%
    07:00 +25°C° 0 mm 1 m/S 745 mmHg 61%
    08:00 +26°C° 0 mm 1 m/S 746 mmHg 56%
    09:00 +28°C° 0 mm 1 m/S 746 mmHg 50%
    10:00 +30°C° 0 mm 2 m/S 746 mmHg 45%
    11:00 +32°C° 0 mm 2 m/S 745 mmHg 39%
    12:00 +32°C° 0 mm 2 m/S 745 mmHg 37%
    13:00 +34°C° 0 mm 2 m/S 745 mmHg 34%
    14:00 +35°C° 0 mm 3 m/S 744 mmHg 32%
    15:00 +35°C° 0 mm 3 m/S 744 mmHg 32%
    16:00 +35°C° 0 mm 3 m/S 744 mmHg 32%
    17:00 +35°C° 0 mm 2 m/S 744 mmHg 32%
    18:00 +31°C° 0 mm 2 m/S 744 mmHg 37%
    19:00 +29°C° 0 mm 1 m/S 745 mmHg 42%
    20:00 +27°C° 0 mm 1 m/S 745 mmHg 46%
    21:00 +27°C° 0,1 mm 1 m/S 745 mmHg 48%
    22:00 +26°C° 0,1 mm 1 m/S 745 mmHg 50%
    23:00 +25°C° 0,1 mm 1 m/S 745 mmHg 51%
    Mehr zeigen